QPF
0.03 0.03 0.03 0.02 0.01 0.01 0.01 0.00 0.00 0.00 0.00 0.00 0.00 0.00 0.00 0.00 0.00 0.00 0.00 0.00 0.00 0.00 0.00 0.00 0.00 0.01 0.01 0.02 0.03 0.05 0.06 0.06 0.06 0.06 0.06 0.05 0.05 0.05 0.05 0.05 0.04 0.04 0.04
0.05 0.04 0.03 0.03 0.02 0.01 0.01 0.01 0.00 0.00 0.00 0.00 0.00 0.00 0.00 0.01 0.01 0.01 0.00 0.00 0.00 0.00 0.00 0.01 0.01 0.01 0.01 0.02 0.03 0.03 0.04 0.05 0.07 0.07 0.07 0.06 0.05 0.04 0.04 0.03 0.03 0.03 0.03
0.06 0.07 0.05 0.04 0.03 0.02 0.01 0.01 0.00 0.00 0.00 0.00 0.00 0.00 0.00 0.00 0.01 0.01 0.00 0.00 0.00 0.00 0.00 0.00 0.01 0.01 0.01 0.02 0.02 0.02 0.02 0.03 0.04 0.05 0.07 0.07 0.06 0.06 0.05 0.04 0.03 0.03 0.02
0.05 0.07 0.07 0.06 0.03 0.03 0.02 0.01 0.01 0.00 0.00 0.00 0.00 0.00 0.00 0.00 0.01 0.00 0.00 0.00 0.00 0.00 0.00 0.00 0.00 0.00 0.01 0.01 0.01 0.02 0.03 0.03 0.03 0.03 0.04 0.05 0.05 0.06 0.07 0.06 0.06 0.06 0.06
0.04 0.04 0.06 0.07 0.05 0.02 0.02 0.02 0.01 0.00 0.00 0.00 0.00 0.00 0.00 0.00 0.00 0.00 0.00 0.00 0.00 0.00 0.00 0.00 0.00 0.00 0.00 0.00 0.01 0.01 0.02 0.02 0.02 0.02 0.02 0.02 0.03 0.05 0.06 0.07 0.07 0.07 0.07
0.07 0.04 0.04 0.05 0.06 0.04 0.02 0.02 0.02 0.01 0.00 0.00 0.00 0.00 0.00 0.00 0.00 0.01 0.00 0.00 0.00 0.00 0.00 0.00 0.00 0.00 0.00 0.00 0.00 0.01 0.01 0.01 0.01 0.02 0.02 0.02 0.02 0.03 0.04 0.04 0.05 0.05 0.05
0.11 0.07 0.04 0.03 0.03 0.04 0.03 0.02 0.02 0.02 0.01 0.00 0.00 0.00 0.00 0.00 0.00 0.00 0.00 0.00 0.00 0.00 0.00 0.00 0.00 0.00 0.00 0.00 0.00 0.00 0.00 0.01 0.01 0.02 0.02 0.02 0.02 0.02 0.02 0.03 0.04 0.05 0.06
0.11 0.12 0.08 0.04 0.02 0.03 0.03 0.02 0.02 0.02 0.02 0.01 0.01 0.00 0.00 0.00 0.00 0.00 0.00 0.00 0.00 0.00 0.00 0.00 0.00 0.00 0.00 0.00 0.00 0.00 0.00 0.01 0.02 0.02 0.03 0.03 0.03 0.02 0.03 0.03 0.04 0.04 0.05
0.05 0.08 0.10 0.07 0.04 0.02 0.04 0.03 0.02 0.02 0.02 0.02 0.02 0.01 0.00 0.00 0.00 0.00 0.00 0.00 0.00 0.00 0.00 0.00 0.00 0.00 0.00 0.00 0.00 0.00 0.00 0.00 0.01 0.03 0.04 0.03 0.02 0.02 0.02 0.02 0.03 0.03 0.03
0.03 0.03 0.05 0.07 0.07 0.04 0.03 0.05 0.05 0.03 0.02 0.02 0.02 0.03 0.02 0.01 0.01 0.00 0.00 0.00 0.00 0.00 0.00 0.00 0.00 0.00 0.00 0.00 0.00 0.00 0.00 0.00 0.01 0.02 0.03 0.03 0.03 0.03 0.02 0.02 0.02 0.03 0.03
0.01 0.02 0.03 0.04 0.06 0.07 0.05 0.03 0.05 0.06 0.04 0.02 0.02 0.03 0.02 0.01 0.01 0.01 0.01 0.01 0.00 0.00 0.00 0.00 0.00 0.00 0.00 0.00 0.00 0.00 0.00 0.00 0.00 0.01 0.02 0.02 0.02 0.02 0.02 0.02 0.02 0.02 0.03
0.00 0.01 0.02 0.02 0.03 0.05 0.05 0.04 0.04 0.05 0.07 0.06 0.03 0.02 0.03 0.03 0.02 0.01 0.01 0.02 0.02 0.02 0.01 0.00 0.00 0.00 0.00 0.00 0.00 0.00 0.00 0.00 0.00 0.01 0.01 0.02 0.02 0.02 0.02 0.02 0.02 0.02 0.02
0.00 0.00 0.01 0.02 0.02 0.03 0.04 0.05 0.05 0.05 0.06 0.07 0.06 0.04 0.03 0.03 0.03 0.02 0.02 0.01 0.01 0.02 0.02 0.01 0.00 0.00 0.00 0.00 0.00 0.00 0.00 0.00 0.00 0.00 0.01 0.01 0.01 0.01 0.01 0.01 0.02 0.02 0.02
0.00 0.00 0.00 0.01 0.01 0.02 0.03 0.04 0.05 0.06 0.07 0.08 0.07 0.06 0.05 0.04 0.04 0.03 0.03 0.02 0.02 0.01 0.01 0.01 0.01 0.00 0.00 0.00 0.00 0.00 0.00 0.00 0.00 0.01 0.01 0.01 0.00 0.00 0.01 0.01 0.01 0.01 0.02
0.00 0.00 0.00 0.00 0.00 0.01 0.02 0.02 0.03 0.04 0.05 0.07 0.08 0.08 0.06 0.05 0.05 0.04 0.04 0.03 0.03 0.02 0.01 0.01 0.00 0.00 0.00 0.00 0.00 0.00 0.00 0.00 0.00 0.00 0.00 0.00 0.00 0.00 0.01 0.01 0.01 0.01 0.02
0.00 0.00 0.00 0.00 0.00 0.00 0.00 0.01 0.02 0.02 0.02 0.03 0.04 0.06 0.07 0.06 0.06 0.05 0.04 0.03 0.03 0.03 0.02 0.01 0.00 0.00 0.00 0.00 0.00 0.00 0.00 0.01 0.00 0.00 0.00 0.00 0.00 0.00 0.01 0.01 0.01 0.01 0.01
0.00 0.00 0.00 0.00 0.00 0.00 0.00 0.00 0.01 0.01 0.01 0.01 0.01 0.02 0.03 0.04 0.04 0.04 0.03 0.03 0.03 0.02 0.02 0.01 0.01 0.01 0.01 0.01 0.01 0.01 0.01 0.01 0.01 0.01 0.00 0.00 0.00 0.00 0.00 0.00 0.01 0.01 0.01
0.00 0.00 0.00 0.00 0.00 0.00 0.00 0.00 0.01 0.01 0.01 0.01 0.01 0.01 0.01 0.01 0.02 0.02 0.02 0.02 0.03 0.02 0.02 0.01 0.01 0.01 0.01 0.02 0.02 0.02 0.02 0.01 0.01 0.01 0.01 0.01 0.00 0.00 0.01 0.01 0.01 0.01 0.01
0.00 0.00 0.00 0.00 0.00 0.00 0.00 0.00 0.00 0.01 0.01 0.00 0.01 0.01 0.01 0.00 0.00 0.01 0.01 0.01 0.02 0.02 0.02 0.02 0.02 0.02 0.02 0.02 0.03 0.03 0.02 0.02 0.02 0.02 0.01 0.01 0.01 0.01 0.01 0.01 0.01 0.01 0.01
0.00 0.00 0.00 0.00 0.00 0.00 0.00 0.00 0.00 0.00 0.00 0.00 0.00 0.00 0.00 0.00 0.00 0.00 0.00 0.01 0.01 0.01 0.01 0.02 0.02 0.02 0.02 0.02 0.02 0.03 0.02 0.02 0.02 0.02 0.02 0.01 0.01 0.01 0.01 0.01 0.01 0.01 0.01
0.00 0.00 0.00 0.00 0.00 0.00 0.00 0.00 0.00 0.00 0.00 0.00 0.00 0.00 0.00 0.00 0.00 0.00 0.00 0.00 0.00 0.01 0.01 0.01 0.02 0.02 0.02 0.02 0.02 0.02 0.02 0.03 0.02 0.02 0.01 0.01 0.01 0.01 0.01 0.01 0.01 0.01 0.01
0.00 0.00 0.00 0.00 0.00 0.00 0.00 0.00 0.00 0.00 0.00 0.00 0.00 0.00 0.00 0.00 0.00 0.00 0.00 0.00 0.00 0.00 0.00 0.01 0.01 0.01 0.01 0.01 0.02 0.02 0.02 0.02 0.01 0.01 0.01 0.00 0.00 0.01 0.01 0.01 0.01 0.01 0.01
0.00 0.00 0.00 0.00 0.00 0.00 0.00 0.00 0.00 0.00 0.00 0.00 0.00 0.00 0.00 0.00 0.00 0.00 0.00 0.00 0.00 0.00 0.00 0.00 0.00 0.00 0.00 0.01 0.01 0.01 0.01 0.01 0.01 0.00 0.00 0.00 0.00 0.00 0.00 0.01 0.01 0.01 0.01
0.00 0.00 0.00 0.00 0.00 0.00 0.00 0.00 0.00 0.00 0.00 0.00 0.00 0.00 0.00 0.00 0.00 0.00 0.00 0.00 0.00 0.00 0.00 0.00 0.00 0.00 0.00 0.00 0.00 0.00 0.00 0.00 0.00 0.00 0.00 0.00 0.00 0.00 0.01 0.01 0.01 0.01 0.01
0.00 0.00 0.00 0.00 0.00 0.00 0.01 0.01 0.00 0.00 0.00 0.00 0.00 0.00 0.00 0.00 0.00 0.00 0.00 0.00 0.00 0.00 0.00 0.00 0.00 0.00 0.00 0.00 0.00 0.00 0.00 0.00 0.00 0.00 0.00 0.00 0.00 0.00 0.00 0.00 0.01 0.01 0.01
0.00 0.00 0.00 0.00 0.01 0.01 0.01 0.01 0.00 0.00 0.00 0.00 0.00 0.00 0.00 0.00 0.00 0.00 0.00 0.00 0.00 0.00 0.00 0.00 0.00 0.00 0.00 0.00 0.00 0.00 0.00 0.00 0.00 0.00 0.00 0.00 0.00 0.00 0.00 0.00 0.00 0.00 0.00
MSLP
1019.95 1019.75 1019.55 1019.36 1019.18 1018.99 1018.78 1018.54 1018.27 1017.97 1017.67 1017.37 1017.11 1016.92 1016.79 1016.74 1016.75 1016.80 1016.84 1016.85 1016.79 1016.64 1016.40 1016.07 1015.68 1015.25 1014.83 1014.44 1014.11 1013.86 1013.69 1013.59 1013.56 1013.58 1013.62 1013.68 1013.72 1013.75 1013.75 1013.72 1013.67 1013.59 1013.50
1020.26 1020.04 1019.82 1019.61 1019.41 1019.20 1018.96 1018.70 1018.42 1018.11 1017.81 1017.54 1017.32 1017.17 1017.10 1017.11 1017.18 1017.28 1017.37 1017.42 1017.39 1017.27 1017.03 1016.71 1016.30 1015.85 1015.39 1014.96 1014.57 1014.26 1014.03 1013.88 1013.80 1013.78 1013.80 1013.83 1013.86 1013.86 1013.83 1013.77 1013.67 1013.54 1013.40
1020.61 1020.38 1020.15 1019.92 1019.70 1019.47 1019.22 1018.94 1018.65 1018.35 1018.06 1017.81 1017.62 1017.51 1017.49 1017.55 1017.66 1017.81 1017.94 1018.03 1018.04 1017.94 1017.75 1017.45 1017.06 1016.62 1016.15 1015.69 1015.26 1014.89 1014.59 1014.38 1014.23 1014.16 1014.13 1014.12 1014.11 1014.09 1014.03 1013.94 1013.80 1013.63 1013.45
1020.96 1020.74 1020.51 1020.29 1020.05 1019.81 1019.54 1019.26 1018.96 1018.66 1018.39 1018.16 1018.00 1017.92 1017.93 1018.01 1018.15 1018.32 1018.48 1018.60 1018.64 1018.60 1018.45 1018.21 1017.87 1017.47 1017.02 1016.56 1016.11 1015.69 1015.33 1015.03 1014.81 1014.66 1014.56 1014.50 1014.46 1014.40 1014.32 1014.20 1014.04 1013.85 1013.64
1021.29 1021.10 1020.89 1020.68 1020.45 1020.19 1019.92 1019.62 1019.32 1019.02 1018.76 1018.54 1018.40 1018.34 1018.36 1018.44 1018.59 1018.75 1018.92 1019.06 1019.14 1019.15 1019.07 1018.91 1018.65 1018.32 1017.92 1017.49 1017.03 1016.58 1016.16 1015.79 1015.48 1015.25 1015.07 1014.95 1014.85 1014.76 1014.65 1014.52 1014.35 1014.15 1013.94
1021.60 1021.45 1021.27 1021.08 1020.85 1020.59 1020.31 1020.00 1019.69 1019.40 1019.14 1018.93 1018.79 1018.73 1018.74 1018.81 1018.93 1019.07 1019.23 1019.37 1019.48 1019.54 1019.54 1019.47 1019.32 1019.08 1018.76 1018.38 1017.94 1017.48 1017.02 1016.58 1016.19 1015.87 1015.61 1015.42 1015.26 1015.13 1015.01 1014.86 1014.70 1014.50 1014.29
1021.86 1021.76 1021.63 1021.45 1021.24 1020.98 1020.69 1020.37 1020.06 1019.76 1019.50 1019.29 1019.15 1019.07 1019.05 1019.09 1019.17 1019.28 1019.41 1019.54 1019.66 1019.77 1019.85 1019.87 1019.82 1019.70 1019.48 1019.17 1018.78 1018.33 1017.84 1017.35 1016.89 1016.49 1016.15 1015.88 1015.68 1015.51 1015.36 1015.21 1015.04 1014.86 1014.65
1022.07 1022.03 1021.94 1021.79 1021.59 1021.33 1021.03 1020.71 1020.39 1020.09 1019.83 1019.63 1019.48 1019.38 1019.33 1019.32 1019.35 1019.41 1019.49 1019.60 1019.73 1019.86 1020.00 1020.11 1020.17 1020.15 1020.03 1019.81 1019.48 1019.06 1018.58 1018.06 1017.55 1017.08 1016.67 1016.34 1016.08 1015.87 1015.70 1015.53 1015.37 1015.19 1014.99
1022.24 1022.25 1022.20 1022.07 1021.88 1021.63 1021.33 1021.01 1020.70 1020.40 1020.15 1019.95 1019.79 1019.68 1019.60 1019.55 1019.53 1019.53 1019.56 1019.63 1019.73 1019.88 1020.05 1020.22 1020.36 1020.44 1020.43 1020.30 1020.04 1019.67 1019.20 1018.68 1018.14 1017.63 1017.17 1016.78 1016.47 1016.22 1016.01 1015.83 1015.66 1015.47 1015.28
1022.35 1022.40 1022.38 1022.28 1022.11 1021.87 1021.58 1021.28 1020.97 1020.70 1020.47 1020.28 1020.13 1020.01 1019.91 1019.83 1019.76 1019.70 1019.67 1019.69 1019.76 1019.89 1020.06 1020.27 1020.47 1020.62 1020.69 1020.63 1020.45 1020.13 1019.71 1019.20 1018.66 1018.12 1017.63 1017.20 1016.84 1016.55 1016.32 1016.11 1015.91 1015.72 1015.51
1022.39 1022.47 1022.48 1022.41 1022.26 1022.04 1021.78 1021.50 1021.23 1020.99 1020.79 1020.63 1020.50 1020.39 1020.29 1020.18 1020.07 1019.96 1019.88 1019.84 1019.86 1019.95 1020.10 1020.30 1020.52 1020.71 1020.83 1020.84 1020.72 1020.47 1020.09 1019.62 1019.09 1018.56 1018.05 1017.59 1017.20 1016.88 1016.61 1016.37 1016.14 1015.92 1015.69
1022.36 1022.46 1022.49 1022.45 1022.33 1022.14 1021.92 1021.69 1021.46 1021.27 1021.11 1020.99 1020.90 1020.81 1020.72 1020.60 1020.47 1020.32 1020.19 1020.09 1020.05 1020.08 1020.19 1020.36 1020.56 1020.76 1020.90 1020.95 1020.88 1020.67 1020.35 1019.92 1019.43 1018.91 1018.41 1017.94 1017.54 1017.18 1016.88 1016.60 1016.35 1016.09 1015.83
1022.23 1022.34 1022.40 1022.38 1022.30 1022.16 1021.99 1021.81 1021.65 1021.51 1021.41 1021.34 1021.28 1021.23 1021.15 1021.05 1020.90 1020.74 1020.56 1020.41 1020.31 1020.28 1020.32 1020.44 1020.60 1020.77 1020.90 1020.96 1020.92 1020.76 1020.49 1020.11 1019.66 1019.18 1018.69 1018.23 1017.81 1017.44 1017.11 1016.81 1016.52 1016.24 1015.95
1022.00 1022.12 1022.19 1022.21 1022.17 1022.09 1021.98 1021.86 1021.75 1021.68 1021.63 1021.61 1021.60 1021.58 1021.53 1021.44 1021.31 1021.14 1020.94 1020.76 1020.61 1020.51 1020.48 1020.53 1020.62 1020.74 1020.85 1020.90 1020.87 1020.74 1020.50 1020.17 1019.77 1019.32 1018.87 1018.42 1018.01 1017.63 1017.28 1016.96 1016.66 1016.36 1016.05
1021.68 1021.80 1021.89 1021.94 1021.95 1021.92 1021.86 1021.80 1021.75 1021.73 1021.73 1021.74 1021.77 1021.79 1021.78 1021.72 1021.61 1021.45 1021.25 1021.05 1020.86 1020.72 1020.63 1020.60 1020.63 1020.68 1020.74 1020.77 1020.73 1020.61 1020.41 1020.11 1019.75 1019.34 1018.91 1018.49 1018.09 1017.71 1017.37 1017.04 1016.73 1016.43 1016.12
1021.29 1021.41 1021.51 1021.59 1021.64 1021.65 1021.65 1021.63 1021.62 1021.63 1021.66 1021.70 1021.76 1021.80 1021.83 1021.80 1021.73 1021.60 1021.43 1021.23 1021.03 1020.85 1020.72 1020.63 1020.59 1020.58 1020.59 1020.57 1020.52 1020.40 1020.20 1019.93 1019.60 1019.22 1018.83 1018.42 1018.04 1017.67 1017.33 1017.02 1016.72 1016.43 1016.14
1020.86 1020.98 1021.09 1021.19 1021.26 1021.31 1021.33 1021.34 1021.35 1021.36 1021.40 1021.46 1021.52 1021.59 1021.64 1021.66 1021.63 1021.54 1021.41 1021.24 1021.06 1020.88 1020.72 1020.59 1020.50 1020.44 1020.39 1020.33 1020.25 1020.12 1019.92 1019.66 1019.35 1018.99 1018.61 1018.22 1017.85 1017.50 1017.17 1016.88 1016.60 1016.34 1016.08
1020.44 1020.56 1020.67 1020.77 1020.85 1020.91 1020.94 1020.94 1020.95 1020.95 1020.98 1021.02 1021.08 1021.16 1021.24 1021.29 1021.31 1021.29 1021.21 1021.10 1020.95 1020.78 1020.62 1020.47 1020.35 1020.25 1020.16 1020.07 1019.95 1019.80 1019.60 1019.34 1019.03 1018.68 1018.31 1017.93 1017.56 1017.21 1016.90 1016.62 1016.37 1016.14 1015.92
1020.07 1020.17 1020.27 1020.36 1020.43 1020.48 1020.49 1020.48 1020.45 1020.42 1020.41 1020.43 1020.49 1020.56 1020.66 1020.75 1020.83 1020.86 1020.85 1020.80 1020.70 1020.57 1020.43 1020.28 1020.15 1020.03 1019.91 1019.79 1019.66 1019.49 1019.27 1019.01 1018.69 1018.34 1017.96 1017.58 1017.21 1016.86 1016.55 1016.28 1016.05 1015.85 1015.66
1019.76 1019.83 1019.91 1019.98 1020.03 1020.04 1020.02 1019.96 1019.89 1019.82 1019.77 1019.75 1019.79 1019.86 1019.97 1020.09 1020.22 1020.31 1020.37 1020.38 1020.34 1020.26 1020.15 1020.03 1019.90 1019.77 1019.65 1019.52 1019.38 1019.20 1018.98 1018.72 1018.39 1018.03 1017.64 1017.24 1016.86 1016.49 1016.18 1015.90 1015.68 1015.49 1015.32
1019.52 1019.56 1019.61 1019.64 1019.64 1019.61 1019.54 1019.43 1019.31 1019.19 1019.09 1019.04 1019.05 1019.12 1019.24 1019.39 1019.55 1019.70 1019.81 1019.88 1019.90 1019.87 1019.80 1019.71 1019.60 1019.50 1019.39 1019.27 1019.13 1018.97 1018.75 1018.49 1018.17 1017.80 1017.39 1016.98 1016.56 1016.18 1015.83 1015.54 1015.30 1015.10 1014.94
1019.33 1019.33 1019.33 1019.32 1019.27 1019.19 1019.06 1018.91 1018.73 1018.56 1018.43 1018.35 1018.34 1018.39 1018.51 1018.68 1018.87 1019.06 1019.22 1019.33 1019.40 1019.41 1019.38 1019.33 1019.26 1019.19 1019.11 1019.02 1018.91 1018.77 1018.59 1018.34 1018.03 1017.66 1017.25 1016.82 1016.38 1015.96 1015.58 1015.25 1014.97 1014.74 1014.55
1019.15 1019.11 1019.06 1019.00 1018.90 1018.76 1018.59 1018.39 1018.17 1017.97 1017.80 1017.70 1017.67 1017.73 1017.85 1018.02 1018.23 1018.43 1018.62 1018.76 1018.85 1018.90 1018.91 1018.90 1018.87 1018.84 1018.80 1018.76 1018.71 1018.61 1018.47 1018.26 1017.98 1017.63 1017.22 1016.77 1016.32 1015.87 1015.44 1015.07 1014.74 1014.46 1014.21
1018.95 1018.86 1018.76 1018.65 1018.51 1018.33 1018.11 1017.88 1017.63 1017.41 1017.23 1017.12 1017.08 1017.13 1017.25 1017.42 1017.63 1017.84 1018.03 1018.18 1018.29 1018.35 1018.39 1018.41 1018.42 1018.44 1018.46 1018.48 1018.49 1018.46 1018.37 1018.22 1017.98 1017.67 1017.28 1016.84 1016.37 1015.89 1015.43 1015.00 1014.61 1014.26 1013.96
1018.70 1018.56 1018.41 1018.25 1018.07 1017.86 1017.62 1017.36 1017.11 1016.88 1016.70 1016.59 1016.56 1016.60 1016.72 1016.88 1017.08 1017.27 1017.45 1017.60 1017.70 1017.78 1017.83 1017.88 1017.93 1017.99 1018.07 1018.15 1018.22 1018.26 1018.25 1018.17 1017.99 1017.72 1017.37 1016.95 1016.48 1015.99 1015.50 1015.02 1014.58 1014.16 1013.78
1018.37 1018.19 1018.00 1017.80 1017.58 1017.35 1017.10 1016.84 1016.59 1016.37 1016.20 1016.10 1016.07 1016.11 1016.22 1016.37 1016.55 1016.73 1016.89 1017.02 1017.12 1017.19 1017.25 1017.31 1017.39 1017.49 1017.62 1017.76 1017.90 1018.01 1018.07 1018.06 1017.95 1017.74 1017.44 1017.05 1016.60 1016.11 1015.60 1015.09 1014.59 1014.12 1013.67
Thickness
5671 5672 5673 5673 5674 5673 5674 5674 5675 5675 5675 5675 5675 5674 5674 5674 5673 5672 5670 5667 5667 5666 5666 5667 5666 5666 5666 5665 5665 5664 5663 5663 5663 5662 5662 5661 5660 5659 5658 5657 5656 5656 5655
5663 5664 5666 5666 5667 5667 5667 5668 5668 5668 5669 5669 5668 5668 5667 5667 5667 5666 5664 5662 5660 5659 5659 5659 5659 5659 5658 5658 5658 5657 5656 5656 5656 5656 5655 5655 5654 5653 5652 5651 5651 5650 5650
5656 5657 5658 5659 5659 5659 5661 5661 5662 5662 5662 5662 5662 5661 5660 5660 5659 5659 5657 5656 5654 5652 5651 5650 5650 5650 5650 5650 5650 5649 5649 5648 5648 5648 5648 5648 5647 5647 5646 5645 5645 5644 5644
5648 5649 5650 5651 5651 5652 5653 5654 5654 5655 5655 5654 5654 5654 5653 5652 5652 5651 5649 5648 5646 5645 5643 5641 5641 5641 5641 5641 5641 5641 5641 5641 5641 5641 5641 5640 5640 5640 5639 5639 5639 5638 5638
5639 5641 5641 5643 5644 5645 5645 5645 5646 5647 5647 5646 5646 5645 5645 5645 5644 5642 5641 5639 5637 5636 5635 5633 5632 5631 5631 5632 5632 5633 5633 5633 5633 5633 5633 5633 5632 5632 5632 5632 5631 5631 5631
5630 5632 5633 5634 5635 5636 5637 5637 5638 5638 5638 5638 5638 5638 5637 5636 5635 5634 5632 5630 5628 5627 5626 5625 5624 5623 5622 5622 5622 5623 5624 5624 5624 5624 5624 5624 5624 5624 5624 5624 5623 5623 5624
5622 5624 5625 5625 5626 5627 5627 5628 5629 5629 5629 5629 5631 5631 5630 5628 5627 5625 5623 5622 5620 5618 5616 5616 5615 5614 5614 5612 5612 5612 5613 5614 5615 5615 5616 5616 5615 5615 5615 5615 5615 5615 5615
5613 5615 5616 5617 5617 5617 5618 5618 5618 5620 5620 5619 5620 5623 5624 5623 5620 5616 5614 5613 5611 5609 5608 5606 5605 5604 5604 5603 5602 5601 5602 5603 5604 5605 5606 5606 5606 5606 5606 5606 5606 5606 5606
5605 5606 5607 5607 5607 5608 5608 5608 5608 5609 5610 5609 5608 5610 5613 5616 5612 5609 5606 5604 5601 5600 5598 5597 5595 5594 5593 5592 5592 5591 5591 5592 5593 5594 5595 5596 5596 5595 5595 5595 5596 5596 5596
5598 5598 5598 5598 5598 5598 5599 5599 5598 5598 5599 5600 5599 5597 5598 5600 5600 5602 5599 5595 5592 5590 5588 5587 5585 5583 5582 5581 5580 5579 5579 5580 5581 5582 5583 5584 5584 5584 5584 5584 5584 5585 5585
5589 5589 5589 5589 5589 5589 5589 5589 5589 5589 5588 5589 5588 5588 5587 5587 5587 5589 5591 5588 5584 5581 5578 5576 5574 5572 5571 5569 5569 5567 5567 5568 5569 5570 5571 5572 5572 5572 5572 5572 5573 5573 5574
5582 5581 5580 5580 5580 5580 5580 5580 5579 5579 5579 5578 5577 5576 5576 5577 5577 5576 5578 5577 5575 5572 5567 5565 5563 5561 5559 5558 5556 5555 5555 5555 5556 5557 5558 5559 5559 5559 5559 5559 5560 5560 5561
5576 5574 5573 5572 5571 5570 5570 5569 5569 5569 5569 5568 5567 5566 5563 5562 5561 5561 5562 5564 5563 5562 5558 5554 5551 5549 5547 5546 5545 5543 5543 5542 5543 5543 5544 5545 5545 5545 5545 5545 5546 5546 5547
5567 5565 5564 5563 5562 5561 5560 5560 5560 5559 5558 5557 5556 5554 5552 5550 5548 5547 5547 5548 5550 5552 5550 5547 5541 5537 5535 5533 5532 5530 5531 5530 5530 5530 5530 5531 5531 5531 5531 5531 5531 5532 5533
5558 5556 5555 5554 5553 5552 5551 5550 5550 5549 5548 5547 5545 5543 5541 5539 5536 5534 5533 5532 5532 5538 5542 5538 5531 5527 5523 5521 5519 5518 5518 5516 5516 5516 5516 5517 5517 5517 5517 5517 5517 5518 5519
5549 5547 5546 5545 5544 5543 5541 5540 5539 5539 5537 5536 5534 5532 5530 5527 5525 5522 5520 5518 5516 5517 5522 5523 5518 5514 5510 5508 5506 5505 5504 5503 5503 5503 5503 5503 5503 5503 5503 5503 5504 5504 5505
5541 5539 5538 5536 5535 5533 5532 5530 5529 5528 5526 5525 5523 5521 5519 5516 5514 5511 5508 5506 5504 5502 5505 5507 5503 5500 5497 5495 5494 5492 5491 5490 5491 5490 5489 5489 5489 5489 5489 5489 5489 5490 5491
5533 5531 5529 5528 5526 5524 5523 5521 5519 5517 5516 5514 5512 5509 5507 5504 5501 5499 5496 5494 5492 5489 5489 5490 5489 5486 5484 5481 5480 5479 5478 5477 5477 5476 5476 5476 5475 5475 5475 5475 5475 5475 5475
5525 5523 5521 5519 5517 5515 5513 5511 5509 5507 5504 5502 5500 5498 5495 5492 5490 5487 5485 5482 5479 5477 5475 5475 5475 5472 5470 5467 5466 5465 5464 5464 5464 5463 5463 5462 5462 5461 5461 5461 5460 5460 5461
5516 5514 5512 5510 5508 5505 5503 5501 5498 5496 5494 5491 5488 5486 5483 5481 5478 5475 5472 5470 5467 5465 5463 5461 5460 5459 5456 5454 5452 5451 5452 5451 5451 5450 5449 5448 5448 5447 5447 5447 5446 5446 5446
5507 5505 5503 5501 5498 5496 5494 5491 5488 5486 5483 5481 5478 5474 5472 5468 5465 5463 5460 5457 5454 5452 5451 5449 5448 5446 5444 5441 5439 5437 5436 5436 5438 5436 5435 5435 5435 5434 5433 5433 5432 5432 5432
5498 5496 5493 5491 5489 5486 5484 5480 5478 5476 5473 5470 5467 5464 5461 5457 5454 5450 5447 5444 5441 5439 5438 5436 5435 5433 5432 5428 5425 5422 5421 5422 5425 5423 5420 5422 5421 5421 5420 5419 5418 5417 5417
5489 5487 5484 5482 5480 5477 5473 5470 5467 5465 5463 5461 5457 5454 5451 5448 5443 5441 5437 5433 5430 5427 5424 5422 5422 5420 5418 5415 5411 5409 5408 5407 5408 5407 5405 5409 5409 5408 5407 5405 5404 5403 5403
5479 5477 5475 5472 5470 5468 5464 5461 5457 5455 5453 5451 5447 5444 5442 5439 5435 5431 5427 5424 5421 5418 5414 5410 5409 5406 5403 5401 5398 5396 5394 5393 5394 5393 5390 5393 5396 5395 5393 5392 5390 5389 5388
5470 5467 5465 5463 5461 5458 5454 5450 5447 5446 5444 5442 5438 5434 5431 5428 5425 5420 5416 5414 5411 5407 5402 5398 5396 5393 5390 5387 5385 5383 5382 5382 5383 5383 5378 5377 5380 5380 5380 5380 5378 5375 5375
5459 5457 5454 5453 5451 5449 5445 5441 5436 5436 5434 5432 5429 5425 5420 5417 5414 5409 5406 5404 5401 5398 5393 5389 5386 5383 5380 5377 5374 5371 5370 5369 5368 5368 5366 5363 5363 5362 5366 5368 5365 5363 5363